Regional Weather Roundup
Issued by NWS Green Bay, WI

Home | Current Version | Previous Version | Graphics & Text | Print | Product List | Glossary Off
Versions: 1 2 3 4 5 6 7 8 9 10 11 12 13 14 15 16 17 18 19 20 21 22 23 24 25 26 27 28 29 30 31 32 33 34 35 36 37 38 39 40 41 42 43 44 45 46 47 48 49 50

253
ASUS43 KGRB 240711
RWRGRB

NORTH-CENTRAL AND NORTHEAST WISCONSIN REGIONAL WEATHER ROUNDUP
NATIONAL WEATHER SERVICE GREEN BAY WI
100 AM CST SAT FEB 24 2018

WIZ005-009-010>012-018-019-240800-
NORTH CENTRAL WISCONSIN

CITY           SKY/WX    TMP DP  RH WIND       PRES   REMARKS
IRONWOOD       CLOUDY    27  21  78 W7        30.21R
MANITOWISH WTR FAIR      20  20 100 SW3       30.18F
ARBOR VITAE    FAIR      22  20  93 CALM      30.20S
EAGLE RIVER    CLOUDY    25  21  84 SW3       30.19S
LAND O LAKES   CLOUDY    27  22  84 W3        30.20S
RHINELANDER    FAIR      19  18  95 SW3       30.20F
PHILLIPS       CLOUDY     6   4  92 CALM      30.21S FOG
ANTIGO         FAIR      20  19  96 NW5       30.21F
TOMAHAWK       FAIR       7   4  89 CALM      30.22F
MERRILL        FOG        9   6  89 CALM      30.23F VSB 1/4
$$

WIZ013-073-240800-
NORTHEAST WISCONSIN

CITY           SKY/WX    TMP DP  RH WIND       PRES   REMARKS
IRON MOUNTAIN  CLOUDY    30  22  72 W8        30.21R
MARINETTE      CLOUDY    32  23  69 N6        30.27R
OCONTO         CLOUDY    31  22  68 NW3       30.26S
$$

WIZ017-030-035>037-045-240800-
CENTRAL WISCONSIN

CITY           SKY/WX    TMP DP  RH WIND       PRES   REMARKS
MEDFORD        FOG        9   7  89 CALM      30.20F VSB<1/4
WAUSAU         FAIR      20  19  96 NW7       30.21F FOG
MOSINEE        MOCLDY    19  19 100 NW5       30.23F FOG
MARSHFIELD     FAIR      18  16  92 NW5       30.21F FOG
WISC RAPIDS    FAIR      20  17  88 S3        30.27R FOG
STEVENS POINT  FAIR      22  20  95 CALM      30.25F
WAUPACA        FAIR      28  22  79 CALM      30.27S
SHAWANO        CLOUDY    31  23  71 CALM      30.26S
CLINTONVILLE   CLOUDY    29  21  71 W3        30.26S
WAUTOMA        FAIR      26  23  88 SW3       30.29R
$$

WIZ038-039-048-051-240800-
FOX VALLEY

CITY           SKY/WX    TMP DP  RH WIND       PRES   REMARKS
NWS GREEN BAY  CLOUDY    32  22  66 W3        30.27R
APPLETON       CLOUDY    30  21  69 NW3       30.25S
OSHKOSH        CLOUDY    30  22  72 N7        30.27S
FOND DU LAC    CLOUDY    30  21  69 NW5       30.28R
$$

WIZ022-050-052-240800-
EAST CENTRAL WISCONSIN

CITY           SKY/WX    TMP DP  RH WIND       PRES   REMARKS
EPHRAIM        CLOUDY    31  22  70 NW5       30.24S
WASHINGTON ISL CLOUDY    32  25  74 NW3       30.24S
STURGEON BAY   CLOUDY    31  23  72 NW6       30.26S
MANITOWOC      CLOUDY    32  24  72 NW5       30.28S
SHEBOYGAN      CLOUDY    31  24  75 N6        30.28R
$$

LMZ563-521-522-541>543-240800-
LAKESHORE

STATION/POSITION TIME  TEMP    WIND        PRES    VSBY  WAVE
                       AIR SEA DIR/SP/G                  HT/PER
                 (UTC) (F)     (DEG/KT/KT) (MB)    (MI)  (FT/S)
SHEBOYGAN LKSHOR 0700   32     310/  4/  5 1026.1R
KEWAUNEE LKSHORE 0648           CALM  /  2 1024.0R
NORTHPORT PIER   0640   33                 1024.0R
SISTER BAY LKSHO 0605   33     300/ 10/ 12   N/A
MENOMINEE LKSHOR 0648          300/  4/  7 1024.1R
$$




USA.gov is the U.S. government's official web portal to all federal, state and local government web resources and services.